Pagrindinis puslapis
METAR-TAF:

METAR-TAF

Oro uostai :

Kaltag, Aliaska, Jungtinės Amerikos Valstijos

platuma: 64-19N, ilguma: 158-44W, Aukštis: 54 m

Dabartinis oras

Ataskaita buvo paskelbta 41 minutes, ne 09:53 UTC
Ramus vėjas
Temperatūra -31°C
Drėgmė 75%
Slėgis 1016 hPa
Matomumas: 16.1 km
Giedras dangus

METAR: PAKV 260953Z AUTO 00000KT 10SM CLR M31/M34 A3001 RMK SLP170 T13111344 TSNO $ VIA AUTODIAL

Laikas: 01:34 (10:34 UTC)


TAF: trūkstamas

Orai ataskaitas ir orų prognozės (METAR, TAF).

turimą stotys yra geltonos ir raudonos taškus žemėlapyje.

Perkelti pele per norėdami pamatyti stoties vardą.

Tada spustelėkite, norėdami matyti oro stebėjimo ir prognozės.

Norėdami pakeisti žemėlapį: spustelėkite ant žalios mygtukų su juodo kryžiaus žemyn,; žalią mygtuką su brūkšneliu, jei norite nutolinti; arba žalių rodyklių gretimoms žemėlapius.


METAR-TAF: